Weather History for KENW - April, 2013

Change the Weather History Date:

Thursday, April 4, 2013

  Actual Average Record
Temperature  
Mean Temperature 42 °F -  
Max Temperature 57 °F 48 °F 75 °F (1997)
Min Temperature 28 °F 30 °F 12 °F (1982)
Degree Days  
Heating Degree Days 22    
Moisture  
Dew Point 24 °F    
Average Humidity 50    
Maximum Humidity 67    
Minimum Humidity 33    
Precipitation  
Precipitation 0.00 in - - ()
Sea Level Pressure  
Sea Level Pressure 30.11 in    
Wind  
Wind Speed 9 mph (WSW)    
Max Wind Speed 21 mph    
Max Gust Speed 26 mph    
Visibility 10 miles    
Events      
Averages and records for this station are not official NWS values.
T = Trace of Precipitation, MM = Missing Value Source: NWS Daily Summary

Daily Weather History Graph

Daily Weather History Graph

Search for Another Location

Airport or City:

Trip Planner

Search our weather history database for the weather conditions in past years. The results will help you decide how hot, cold, wet, or windy it might be!

Date:

Astronomy

Apr. 04, 2013 Rise Set
Actual Time 6:28 AM CDT 7:21 PM CDT
Civil Twilight 5:59 AM CDT 7:50 PM CDT
Nautical Twilight 5:25 AM CDT 8:24 PM CDT
Astronomical Twilight 4:50 AM CDT 8:59 PM CDT
Moon 3:02 AM CDT (4/4) 1:32 PM CDT (4/4)
Length of Visible Light 13h 50m
Length of Day
12h 53m
Waning Crescent, 33% of the Moon is Illuminated
Apr 4
Waning Crescent
Apr 10
New
Apr 18
First Quarter
Apr 25
Full
May 2
Last Quarter

Hourly Weather History & Observations

Time (CDT) Temp. Windchill Dew Point Humidity Pressure Visibility Wind Dir Wind Speed Gust Speed Precip Events Conditions
12:53 AM 28.9 °F 21.9 °F 17.1 °F 61% 30.31 in 10.0 mi South 6.9 mph - N/A   Clear
1:53 AM 28.9 °F 21.9 °F 19.0 °F 67% 30.30 in 10.0 mi South 6.9 mph - N/A   Clear
2:53 AM 28.9 °F 22.8 °F 17.1 °F 61% 30.27 in 10.0 mi SSW 5.8 mph - N/A   Clear
3:53 AM 28.9 °F 21.9 °F 16.0 °F 58% 30.25 in 10.0 mi South 6.9 mph - N/A   Clear
4:53 AM 28.0 °F 21.7 °F 16.0 °F 61% 30.24 in 10.0 mi SSW 5.8 mph - N/A   Clear
5:53 AM 28.9 °F 21.1 °F 17.1 °F 61% 30.22 in 10.0 mi SSW 8.1 mph - N/A   Clear
6:53 AM 28.0 °F 21.7 °F 17.1 °F 63% 30.23 in 10.0 mi SW 5.8 mph - N/A   Clear
7:53 AM 34.0 °F 27.2 °F 19.9 °F 56% 30.22 in 10.0 mi SW 8.1 mph - N/A   Clear
8:53 AM 39.9 °F 33.4 °F 21.0 °F 47% 30.19 in 10.0 mi SW 10.4 mph - N/A   Clear
9:53 AM 44.1 °F 37.7 °F 21.9 °F 42% 30.16 in 10.0 mi SSW 12.7 mph 18.4 mph N/A   Clear
10:53 AM 48.0 °F - 21.9 °F 36% 30.14 in 10.0 mi WSW 18.4 mph 26.5 mph N/A   Clear
11:53 AM 51.1 °F - 23.0 °F 33% 30.11 in 10.0 mi WSW 20.7 mph 26.5 mph N/A   Clear
12:53 PM 53.1 °F - 26.1 °F 35% 30.08 in 10.0 mi West 17.3 mph 23.0 mph N/A   Clear
1:53 PM 55.0 °F - 27.0 °F 34% 30.05 in 10.0 mi West 13.8 mph 23.0 mph N/A   Clear
2:53 PM 57.0 °F - 28.0 °F 33% 30.01 in 10.0 mi West 13.8 mph - N/A   Clear
3:53 PM 57.0 °F - 28.9 °F 34% 29.98 in 10.0 mi SW 15.0 mph 21.9 mph N/A   Clear
4:53 PM 57.0 °F - 30.9 °F 37% 29.97 in 10.0 mi WSW 11.5 mph - N/A   Clear
5:53 PM 55.0 °F - 32.0 °F 42% 29.98 in 10.0 mi WSW 11.5 mph - N/A   Overcast
6:53 PM 53.1 °F - 32.0 °F 45% 29.97 in 10.0 mi WSW 9.2 mph - N/A   Mostly Cloudy
7:53 PM 48.0 °F - 30.9 °F 52% 29.97 in 10.0 mi WSW 5.8 mph - N/A   Partly Cloudy
8:53 PM 46.0 °F 41.9 °F 30.9 °F 56% 29.99 in 10.0 mi WNW 8.1 mph - N/A   Partly Cloudy
9:53 PM 46.0 °F 43.9 °F 32.0 °F 58% 30.00 in 10.0 mi NNW 4.6 mph - N/A   Clear
10:53 PM 44.1 °F 40.1 °F 30.9 °F 60% 30.01 in 10.0 mi NNW 6.9 mph - N/A   Clear
11:53 PM 42.1 °F 38.4 °F 28.9 °F 60% 30.01 in 10.0 mi NW 5.8 mph - N/A   Clear